| time (UTC) | temp F | wind direction | speed MPH | gust MPH | rain 1hr in | rain 24hr in | rain mn in | humidity % | barometer mb |
| 20260505040009 | 54 | 165 | 1.0 | 3.0 | 0.00 | 0.00 | 0.00 | 48 | 1016.4 |
| 20260505034508 | 55 | 186 | 1.0 | 3.0 | 0.00 | 0.00 | 0.00 | 47 | 1016.5 |
| 20260505033012 | 55 | 184 | 1.0 | 4.0 | 0.00 | 0.00 | 0.00 | 47 | 1016.6 |
| 20260505031507 | 55 | 178 | 2.0 | 4.0 | 0.00 | 0.00 | 0.00 | 47 | 1016.6 |
| 20260505030008 | 55 | 175 | 1.0 | 7.0 | 0.00 | 0.00 | 0.00 | 47 | 1016.7 |
| 20260505024511 | 55 | 175 | 1.0 | 3.0 | 0.00 | 0.00 | 0.00 | 46 | 1016.7 |
| 20260505023017 | 55 | 200 | 2.0 | 5.0 | 0.00 | 0.00 | 0.00 | 46 | 1016.8 |
| 20260505021510 | 55 | 198 | 1.0 | 3.0 | 0.00 | 0.00 | 0.00 | 47 | 1016.9 |
| 20260505020006 | 56 | 163 | 0.0 | 3.0 | 0.00 | 0.00 | 0.00 | 47 | 1016.9 |
| 20260505014512 | 56 | 202 | 1.0 | 7.0 | 0.00 | 0.00 | 0.00 | 48 | 1016.8 |
| 20260505013004 | 56 | 196 | 0.0 | 2.0 | 0.00 | 0.00 | 0.00 | 49 | 1016.8 |
| 20260505011504 | 57 | 139 | 0.0 | 4.0 | 0.00 | 0.00 | 0.00 | 48 | 1016.5 |
| 20260505010004 | 57 | 151 | 1.0 | 3.0 | 0.00 | 0.00 | 0.00 | 47 | 1016.2 |
| 20260505004503 | 58 | 180 | 0.0 | 2.0 | 0.00 | 0.00 | 0.00 | 47 | 1016.1 |
| 20260505003002 | 59 | 175 | 0.0 | 3.0 | 0.00 | 0.00 | 0.00 | 46 | 1016.1 |
| 20260505001601 | 60 | 215 | 0.0 | 3.0 | 0.00 | 0.00 | 0.00 | 44 | 1015.8 |
| 20260505000109 | 60 | 221 | 1.0 | 4.0 | 0.00 | 0.00 | 0.00 | 44 | 1015.7 |
| 20260504234600 | 61 | 214 | 1.0 | 5.0 | 0.00 | 0.00 | 0.00 | 42 | 1015.6 |
| 20260504233106 | 62 | 190 | 1.0 | 5.0 | 0.00 | 0.00 | 0.00 | 41 | 1015.5 |
| 20260504231557 | 62 | 161 | 1.0 | 3.0 | 0.00 | 0.00 | 0.00 | 40 | 1015.5 |
| 20260504230104 | 63 | 180 | 1.0 | 3.0 | 0.00 | 0.00 | 0.00 | 37 | 1015.4 |
| 20260504224555 | 64 | 273 | 1.0 | 7.0 | 0.00 | 0.00 | 0.00 | 36 | 1015.5 |
| 20260504223101 | 66 | 178 | 1.0 | 4.0 | 0.00 | 0.00 | 0.00 | 31 | 1015.5 |
| 20260504221553 | 67 | 191 | 1.0 | 3.0 | 0.00 | 0.00 | 0.00 | 28 | 1015.4 |
| 20260504220052 | 66 | 200 | 1.0 | 4.0 | 0.00 | 0.00 | 0.00 | 23 | 1015.5 |
| 20260504214606 | 66 | 159 | 1.0 | 5.0 | 0.00 | 0.00 | 0.00 | 22 | 1015.7 |
| 20260504213057 | 67 | 198 | 1.0 | 7.0 | 0.00 | 0.00 | 0.00 | 21 | 1015.8 |
| 20260504211552 | 68 | 190 | 1.0 | 4.0 | 0.00 | 0.00 | 0.00 | 20 | 1015.9 |
| 20260504210046 | 69 | 216 | 0.0 | 4.0 | 0.00 | 0.00 | 0.00 | 21 | 1016.1 |
| 20260504204550 | 68 | 187 | 1.0 | 5.0 | 0.00 | 0.00 | 0.00 | 22 | 1016.1 |
| 20260504203045 | 69 | 225 | 1.0 | 3.0 | 0.00 | 0.00 | 0.00 | 24 | 1016.2 |
| 20260504201558 | 69 | 205 | 1.0 | 5.0 | 0.00 | 0.00 | 0.00 | 23 | 1016.4 |
| 20260504200044 | 69 | 246 | 1.0 | 5.0 | 0.00 | 0.00 | 0.00 | 25 | 1016.5 |
| 20260504194541 | 68 | 242 | 1.0 | 4.0 | 0.00 | 0.00 | 0.00 | 26 | 1016.7 |
| 20260504193037 | 67 | 242 | 2.0 | 4.0 | 0.00 | 0.00 | 0.00 | 27 | 1017.1 |
| 20260504191537 | 68 | 242 | 3.0 | 5.0 | 0.00 | 0.00 | 0.00 | 25 | 1017.3 |
| 20260504190033 | 68 | 244 | 2.0 | 5.0 | 0.00 | 0.00 | 0.00 | 22 | 1017.4 |
| 20260504184535 | 68 | 221 | 2.0 | 7.0 | 0.00 | 0.00 | 0.00 | 20 | 1017.5 |
| 20260504183031 | 68 | 217 | 2.0 | 5.0 | 0.00 | 0.00 | 0.00 | 18 | 1017.6 |
| 20260504181532 | 68 | 217 | 1.0 | 5.0 | 0.00 | 0.00 | 0.00 | 22 | 1017.6 |
| 20260504180024 | 67 | 224 | 0.0 | 5.0 | 0.00 | 0.00 | 0.00 | 25 | 1017.8 |
| 20260504174522 | 66 | 211 | 0.0 | 5.0 | 0.00 | 0.00 | 0.00 | 29 | 1018.1 |
| 20260504173017 | 65 | 230 | 2.0 | 4.0 | 0.00 | 0.00 | 0.00 | 29 | 1018.4 |
| 20260504171513 | 63 | 230 | 1.0 | 5.0 | 0.00 | 0.00 | 0.00 | 30 | 1018.5 |
| 20260504160106 | 59 | 206 | 0.0 | 2.0 | 0.00 | 0.00 | 0.00 | 29 | 1019.5 |
| 20260504081505 | 44 | 165 | 0.0 | 1.0 | 0.00 | 0.00 | 0.00 | 48 | 1019.8 |
| 20260504044547 | 45 | 34 | 0.0 | 1.0 | 0.00 | 0.00 | 0.00 | 37 | 1020.3 |
| 20260504043044 | 45 | 34 | 0.0 | 1.0 | 0.00 | 0.00 | 0.00 | 38 | 1020.4 |
| 20260504041542 | 45 | 34 | 0.0 | 0.0 | 0.00 | 0.00 | 0.00 | 40 | 1020.1 |